FW7688 Weather Reports


time (UTC)temp
F
wind
direction
speed
knots
gust
knots
rain 1hr
in
rain 24hr
in
rain mn
in
humidity
%
barometer
mb
20260905221521 68 241 0.0 0.9 0.00 0.00 0.00 80 1012.3
20260905220021 69 205 0.0 0.0 0.00 0.00 0.00 80 1012.4
20260905214520 69 205 0.0 0.9 0.00 0.00 0.00 79 1012.2
20260905213020 69 257 0.0 0.0 0.00 0.00 0.00 80 1012.0
20260905211520 70 257 0.0 0.9 0.00 0.00 0.00 79 1012.0
20260905210019 70 257 0.0 0.9 0.00 0.00 0.00 76 1011.8
20260905204524 71 259 0.0 1.7 0.00 0.00 0.00 77 1011.6
20260905203019 72 79 0.0 0.0 0.00 0.00 0.00 76 1011.6
20260905201517 72 230 0.0 0.9 0.00 0.00 0.00 74 1011.6
20260905200026 73 166 0.0 0.9 0.00 0.00 0.00 72 1011.6
20260905194515 73 120 0.0 2.6 0.00 0.00 0.00 74 1011.5
20260905193014 72 214 0.0 1.7 0.00 0.00 0.00 73 1011.4
20260905191513 73 89 0.0 1.7 0.00 0.00 0.00 71 1011.5
20260905190013 73 94 0.0 1.7 0.00 0.00 0.00 70 1011.6
20260905184535 75 121 0.0 0.9 0.00 0.00 0.00 70 1011.7
20260905183025 74 234 0.0 2.6 0.00 0.00 0.00 69 1011.7
20260905181504 74 249 0.0 1.7 0.00 0.00 0.00 73 1011.8
20260905180001 73 98 0.0 1.7 0.00 0.00 0.00 75 1011.8
20260905174600 72 222 0.0 2.6 0.00 0.00 0.00 72 1012.0
20260905173106 72 356 0.0 2.6 0.00 0.00 0.00 77 1012.1
20260905171603 72 288 0.0 3.5 0.00 0.00 0.00 76 1012.3
20260905170053 71 277 0.0 1.7 0.00 0.00 0.00 76 1012.3
20260905164552 70 141 0.0 2.6 0.00 0.00 0.00 76 1012.3
20260905163053 70 274 0.0 1.7 0.00 0.00 0.00 79 1012.3
20260905161550 69 250 0.0 1.7 0.00 0.00 0.00 81 1012.2
20260905160051 69 217 0.0 0.0 0.00 0.00 0.00 81 1012.3
20260905154610 70 229 0.0 0.9 0.00 0.00 0.00 80 1012.2
20260905153048 70 224 0.0 3.5 0.00 0.00 0.00 81 1012.2
20260905151545 70 267 0.0 1.7 0.00 0.00 0.00 81 1012.3
20260905150044 69 55 0.0 3.5 0.00 0.00 0.00 82 1012.3
20260905144543 69 118 0.0 4.3 0.00 0.00 0.00 82 1012.2
20260905143041 68 270 0.0 2.6 0.00 0.00 0.00 84 1012.2
20260905141541 68 214 0.0 3.5 0.00 0.00 0.00 87 1012.0
20260905140045 67 248 0.0 2.6 0.00 0.00 0.00 86 1012.1
20260905134540 67 228 0.0 0.9 0.00 0.00 0.00 89 1012.2
20260905133045 66 277 0.0 0.9 0.00 0.00 0.00 88 1012.2
20260905131543 66 185 0.0 0.9 0.00 0.00 0.00 87 1012.5
20260905130044 67 269 0.0 0.9 0.00 0.00 0.00 86 1012.6
20260905124538 68 254 0.0 0.9 0.00 0.00 0.00 83 1012.6
20260905123033 67 189 0.0 0.9 0.00 0.00 0.00 88 1012.7
20260905121530 66 187 0.0 0.0 0.00 0.00 0.00 93 1012.5
20260905120026 64 187 0.0 0.0 0.00 0.00 0.00 98 1012.5
20260905114523 62 188 0.0 0.0 0.00 0.00 0.00 98 1012.3
20260905113021 59 187 0.0 0.0 0.00 0.00 0.00 98 1012.0
20260905111530 58 188 0.0 0.0 0.00 0.00 0.00 97 1011.9
20260905110034 58 187 0.0 0.0 0.00 0.00 0.00 97 1011.9
20260905104524 58 187 0.0 0.0 0.00 0.00 0.00 97 1011.6
20260905103019 58 187 0.0 0.0 0.00 0.00 0.00 97 1011.3
20260905101518 58 187 0.0 0.0 0.00 0.00 0.00 97 1011.3
20260905100017 58 187 0.0 0.0 0.00 0.00 0.00 97 1011.2
20260905094516 58 187 0.0 0.0 0.00 0.00 0.00 97 1011.3
20260905093016 58 187 0.0 0.0 0.00 0.00 0.00 97 1011.3
20260905091516 58 188 0.0 0.0 0.00 0.00 0.00 96 1011.3
20260905090018 58 187 0.0 0.0 0.00 0.22 0.00 96 1011.2
20260905084512 58 188 0.0 0.0 0.00 0.22 0.00 96 1011.2
20260905083011 58 188 0.0 0.0 0.00 0.22 0.00 96 1011.2
20260905081510 59 188 0.0 0.0 0.00 0.22 0.00 96 1011.1
20260905080008 59 188 0.0 0.0 0.00 0.64 0.00 95 1011.2
20260905074507 59 188 0.0 0.0 0.00 0.64 0.00 95 1011.2
20260905073005 59 188 0.0 0.0 0.00 0.64 0.00 95 1011.3
20260905071504 60 188 0.0 0.0 0.00 0.64 0.00 94 1011.3
20260905070004 60 188 0.0 0.0 0.00 0.68 0.00 94 1011.4
20260905064606 61 188 0.0 0.0 0.00 0.68 0.00 94 1011.5
20260905063100 61 189 0.0 0.0 0.00 0.68 0.00 94 1011.7
20260905061601 61 189 0.0 0.0 0.00 0.68 0.00 95 1011.7
20260905060058 61 176 0.0 0.0 0.00 0.68 0.00 96 1011.8
20260905054555 60 176 0.0 0.0 0.00 0.68 0.00 96 1012.0
20260905053100 61 176 0.0 0.0 0.00 0.68 0.00 96 1012.2
20260905051552 60 176 0.0 0.0 0.00 0.68 0.00 95 1012.3
20260905050052 61 176 0.0 0.0 0.00 0.68 0.00 95 1012.4
20260905044549 61 176 0.0 0.0 0.00 0.68 0.00 95 1012.4
20260905043055 61 176 0.0 0.0 0.00 0.68 0.00 96 1012.5
20260905041546 61 176 0.0 0.0 0.00 0.68 0.00 96 1012.4
20260905040043 62 176 0.0 0.0 0.00 0.68 0.00 96 1012.5
20260905034553 62 176 0.0 0.0 0.00 0.68 0.68 96 1012.6
20260905033108 62 176 0.0 0.0 0.00 0.68 0.68 96 1012.6
20260905031552 62 176 0.0 0.0 0.00 0.68 0.68 97 1012.4
20260905030052 62 176 0.0 0.0 0.00 0.68 0.68 96 1012.4
20260905024538 63 176 0.0 0.0 0.00 0.68 0.68 96 1012.4
20260905023041 63 148 0.0 0.0 0.00 0.68 0.68 96 1012.3
20260905021536 63 148 0.0 0.0 0.00 0.68 0.68 96 1012.2
20260905020039 63 148 0.0 0.0 0.00 0.68 0.68 96 1012.2
20260905014533 64 148 0.0 0.0 0.00 0.68 0.68 96 1012.1
20260905013036 64 148 0.0 0.0 0.00 0.68 0.68 96 1012.5
20260905011536 64 148 0.0 0.0 0.00 0.68 0.68 95 1012.3
20260905010029 65 148 0.0 0.0 0.00 0.68 0.68 95 1012.3
20260905004529 65 148 0.0 0.0 0.00 0.68 0.68 95 1012.3
20260905003027 65 148 0.0 0.0 0.00 0.68 0.68 94 1012.4
20260905001526 65 148 0.0 0.0 0.00 0.68 0.68 93 1012.2
20260905000023 66 148 0.0 0.0 0.00 0.68 0.68 92 1012.0
20260904234521 67 148 0.0 0.0 0.00 0.68 0.68 91 1011.9
20260904233021 67 148 0.0 0.0 0.00 0.68 0.68 89 1011.8
20260904231522 68 148 0.0 0.0 0.00 0.68 0.68 89 1011.8
20260904230030 69 148 0.0 0.0 0.00 0.68 0.68 88 1011.9
20260904224521 70 148 0.0 0.0 0.00 0.68 0.68 87 1011.8
20260904223018 71 148 0.0 0.0 0.00 0.68 0.68 85 1011.8